EW4415 Weather Reports


Display with metric or nautical units.
time (UTC)temp
F
wind
direction
speed
MPH
gust
MPH
rain 1hr
in
rain 24hr
in
rain mn
in
humidity
%
barometer
mb
20260508104525 57 42 0.0 2.0 0.00 0.00 0.00 31 1026.0
20260508103023 57 355 0.0 3.0 0.00 0.00 0.00 33 1026.1
20260508101532 57 313 0.0 2.0 0.00 0.00 0.00 34 1025.9
20260508100021 57 24 0.0 9.0 0.00 0.00 0.00 33 1026.0
20260508094519 57 37 0.0 11.0 0.00 0.00 0.00 35 1025.9
20260508093036 56 28 0.0 2.0 0.00 0.00 0.00 37 1025.8
20260508091512 55 41 0.0 10.0 0.00 0.00 0.00 37 1025.9
20260508090023 55 330 0.0 5.0 0.00 0.00 0.00 37 1025.9
20260508084507 54 302 0.0 3.0 0.00 0.00 0.00 38 1025.8
20260508083004 54 30 0.0 2.0 0.00 0.00 0.00 41 1025.7
20260508081616 53 336 0.0 8.0 0.00 0.00 0.00 40 1025.7
20260508080056 53 15 0.0 2.0 0.00 0.00 0.00 42 1025.6
20260508074555 52 75 0.0 2.0 0.00 0.00 0.00 43 1025.6
20260508073052 52 288 0.0 0.0 0.00 0.00 0.00 49 1025.4
20260508071545 50 23 0.0 2.0 0.00 0.00 0.00 48 1025.3
20260508070041 50 328 0.0 0.0 0.00 0.00 0.00 50 1025.2
20260508064536 48 317 0.0 8.0 0.00 0.00 0.00 52 1025.1
20260508063033 48 293 0.0 9.0 0.00 0.00 0.00 52 1025.0
20260508061530 47 9 0.0 2.0 0.00 0.00 0.00 54 1024.8
20260508060027 46 348 0.0 0.0 0.00 0.00 0.00 58 1024.6
20260508054524 45 348 0.0 0.0 0.00 0.00 0.00 59 1024.5
20260508053020 44 13 0.0 0.0 0.00 0.00 0.00 59 1024.3
20260508051516 43 311 0.0 0.0 0.00 0.00 0.00 60 1024.1
20260508050015 42 17 0.0 0.0 0.00 0.00 0.00 61 1024.0
20260508044513 41 338 0.0 0.0 0.00 0.00 0.00 60 1023.8
20260508043004 39 355 0.0 0.0 0.00 0.00 0.00 60 1023.7
20260508041602 38 327 0.0 0.0 0.00 0.00 0.00 59 1023.6
20260508040059 37 336 0.0 0.0 0.00 0.00 0.00 58 1023.5
20260508034601 35 324 0.0 0.0 0.00 0.00 0.00 55 1023.3
20260508033051 33 342 0.0 0.0 0.00 0.00 0.00 49 1023.2
20260508031558 31 300 0.0 0.0 0.00 0.00 0.00 44 1023.0
20260508030105 31 298 0.0 0.0 0.00 0.00 0.00 47 1022.8
20260508024645 31 298 0.0 0.0 0.00 0.00 0.00 50 1022.7
20260508023047 32 298 0.0 0.0 0.00 0.00 0.00 54 1022.5
20260508021540 32 298 0.0 0.0 0.00 0.00 0.00 56 1022.2
20260508020038 33 298 0.0 0.0 0.00 0.00 0.00 59 1021.9
20260508014536 33 298 0.0 0.0 0.00 0.00 0.00 60 1021.8
20260508013034 34 298 0.0 0.0 0.00 0.00 0.00 61 1021.6
20260508011534 34 291 0.0 0.0 0.00 0.00 0.00 61 1021.4
20260508010039 35 290 0.0 0.0 0.00 0.00 0.00 62 1021.3
20260508004531 35 290 0.0 0.0 0.00 0.00 0.00 61 1021.1
20260508003026 35 289 0.0 0.0 0.00 0.00 0.00 61 1020.9
20260508001531 34 279 0.0 0.0 0.00 0.00 0.00 60 1020.7
20260508000022 34 279 0.0 0.0 0.00 0.00 0.00 61 1020.5
20260507234520 34 279 0.0 0.0 0.00 0.00 0.00 61 1020.4
20260507233018 34 279 0.0 0.0 0.00 0.00 0.00 61 1020.1
20260507231515 33 279 0.0 0.0 0.00 0.00 0.00 60 1019.9
20260507230014 33 279 0.0 0.0 0.00 0.00 0.00 59 1019.7
20260507224512 33 279 0.0 0.0 0.00 0.00 0.00 58 1019.5
20260507223008 32 279 0.0 0.0 0.00 0.00 0.00 56 1019.3
20260507221505 31 279 0.0 0.0 0.00 0.00 0.00 52 1019.2
20260507220003 30 279 0.0 0.0 0.00 0.00 0.00 45 1019.0
20260507214502 30 279 0.0 0.0 0.00 0.00 0.00 45 1019.0
20260507213058 30 279 0.0 0.0 0.00 0.00 0.00 52 1018.7
20260507211555 31 279 0.0 0.0 0.00 0.00 0.00 54 1018.5
20260507210115 31 279 0.0 0.0 0.00 0.00 0.00 56 1018.3
20260507204555 32 279 0.0 0.0 0.00 0.00 0.00 57 1018.1
20260507203044 33 279 0.0 0.0 0.00 0.00 0.00 60 1017.9
20260507201539 34 279 0.0 0.0 0.00 0.00 0.00 61 1017.8
20260507200050 35 279 0.0 0.0 0.00 0.00 0.00 62 1017.7
20260507194532 36 279 0.0 0.0 0.00 0.00 0.00 63 1017.5
20260507193047 37 279 0.0 0.0 0.00 0.00 0.00 63 1017.3
20260507191526 38 279 0.0 0.0 0.00 0.00 0.00 62 1017.2
20260507190028 40 279 0.0 0.0 0.00 0.00 0.00 60 1017.1
20260507184512 41 279 0.0 0.0 0.00 0.00 0.00 58 1017.0
20260507183008 43 279 0.0 0.0 0.00 0.00 0.00 55 1016.9
20260507181503 44 279 0.0 0.0 0.00 0.00 0.00 53 1016.8
20260507180101 45 279 0.0 0.0 0.00 0.00 0.00 50 1016.8
20260507174601 46 279 0.0 0.0 0.00 0.00 0.00 48 1016.6
20260507173125 48 277 0.0 0.0 0.00 0.00 0.00 46 1016.5
20260507171548 49 5 0.0 0.0 0.00 0.00 0.00 43 1016.4
20260507170047 50 275 0.0 0.0 0.00 0.00 0.00 39 1016.3
20260507164539 50 234 0.0 0.0 0.00 0.00 0.00 38 1016.2
20260507163037 51 349 0.0 0.0 0.00 0.00 0.00 35 1016.2
20260507161528 53 309 0.0 2.0 0.00 0.00 0.00 32 1016.2
20260507160038 54 213 0.0 1.0 0.00 0.00 0.00 32 1016.1
20260507154520 55 237 0.0 1.0 0.00 0.00 0.00 33 1016.0
20260507153020 56 33 0.0 0.0 0.00 0.00 0.00 30 1015.9
20260507151511 57 181 0.0 1.0 0.00 0.00 0.00 31 1015.9
20260507150007 56 136 0.0 0.0 0.00 0.00 0.00 33 1015.9
20260507144503 56 165 0.0 1.0 0.00 0.00 0.00 33 1015.8
20260507143101 55 67 0.0 1.0 0.00 0.00 0.00 34 1015.7
20260507141610 56 145 0.0 1.0 0.00 0.00 0.00 33 1015.7
20260507140059 54 196 0.0 2.0 0.00 0.00 0.00 31 1015.7
20260507134550 55 157 0.0 1.0 0.00 0.00 0.00 32 1015.6
20260507133047 56 132 0.0 7.0 0.00 0.00 0.00 31 1015.6
20260507131540 57 193 0.0 1.0 0.00 0.00 0.00 29 1015.6
20260507130040 56 148 1.0 12.0 0.00 0.00 0.00 29 1015.5
20260507124536 56 154 0.0 3.0 0.00 0.00 0.00 29 1015.5
20260507123035 55 148 0.0 5.0 0.00 0.00 0.00 28 1015.5
20260507121522 57 287 0.0 0.0 0.00 0.00 0.00 30 1015.4
20260507120018 56 156 0.0 7.0 0.00 0.00 0.00 29 1015.4
20260507114513 57 143 0.0 1.0 0.00 0.00 0.00 29 1015.4
20260507113008 58 48 0.0 1.0 0.00 0.00 0.00 29 1015.3
20260507111509 58 163 0.0 0.0 0.00 0.00 0.00 29 1015.5
20260507110104 58 145 0.0 1.0 0.00 0.00 0.00 27 1015.5